BLOCK DM-SL R/B, 44904

Orbit data source: Space-Track

BLOCK DM-SL R/B, 44904 is space debris in GEO originally from a launch on Tue, 24 Dec 2019 UTC launched from the Tyuratam Missile And Space Complex (TTMTR). Debris objects in space refer to the collection of defunct objects orbiting the Earth. Examples of debris include non-operational satellites, rocket bodies, and fragments generated from explosions, collisions, or faulty payload assembly.

Not visible in the next 10 days
Identifier
44904, 2019-095B
Orbit
GEO
Country
Flag of CISCIS
Related business
Manufacturer
RKKE
Mission
Spacecraft
Bus & Motor
BLOK DM2, 11D58M
Mass
2,440 kg wet, 2,440 kg dry
Launch date (UTC)
2019-12-24 (6 years ago)
Launch vehicle
Unknown
Launch site
Tyuratam Missile And Space Complex (TTMTR)
Object type
Payload
Rocket body
Debris
Shape & HBR
Cyl, 3.5 m
Radar Cross Section
26.008 m², Large (>1 m²)

Expand to show TLE details & history
Last TLE update: 2 days ago

TLE from 2 days ago
0 BLOCK DM-SL R/B
1 44904U 19095B   26171.23753060 -.00000187  00000-0  00000+0 0  9994
2 44904   5.3387  73.4518 0070039 276.0018  83.0200  1.02973193 24420
Epoch: 2026-06-20T05:42Z
TLE epoch observation values (Epoch: 2026-06-20T05:42:02.643Z)
Latitude
-0°
Longitude
79.31693°
Altitude
35,012.88 km
Speed
3.105 km/s
True Right ascension
04h 53m 07s
True Declination
0° 00' 00"
Sunlit
Object was in daylight at epoch
Visualization orbit readout
Latitude
Unknown
Longitude
Unknown
Altitude
Unknown
Speed
Unknown
Apparent Right ascension
Unknown
Apparent Declination
Unknown
Sunlit
N/A
Visualization observer readout
Local Sidereal Time
01:06:06
Azimuth
Unknown
Elevation
Unknown
Doppler factor
Unknown
Orbital elements
Apogee altitude
35,337.109 km
Perigee altitude
34,756.834 km
Semi-major axis
41,425.109 km
Eccentricity
0.007
Inclination
5.3387°
RAAN
73.4518°
Arg. of periapsis
276.0018°
True anomaly
83.81746°
Mean anomaly
83.02°
Eccentric anomaly
83.41865°
Mean motion
0.25742 °/min
Orbital period
1,398.48 mins
BSTAR
0
Loading maneuver chart data...
Computing Atmospheric mass density...
Loading historical data...
Loading historical data...
Loading historical data...
Loading historical data...
Loading historical data...
Loading historical data...
Loading historical data...
Other satellites on launch #95 in the year 2019 (2019-12-24 UTC)

Documentation

Showing up to 5 results
|